Hourly Data Report for June 23, 2021

HALL BEACH A
NUNAVUT
Current Station Operator: NAVCAN

68°46'33.000" N
81°14'33.000" W
9.10 m
2402354
71293
YUX

Download Data

Hourly Data (June 2021)
Hourly Data Report for June 23, 2021
TIME
LST
Temp Definition
°C
Dew Point Definition
°C
Rel Hum Definition
%
Precip. Amount Definition
mm

Wind Dir Definition
10's deg

Wind Spd Definition
km/h
Visibility Definition
km
Stn Press Definition
kPa
Hmdx Definition


Wind Chill Definition


Weather Definition


00:00 0.1 0.1 100 0.0 5 9 8.1 98.63     Rain, Fog
01:00 0.1 0.1 100 0.5 5 13 2.4 98.54     Snow
02:00 0.2 0.2 100 1.2 5 13 2.0 98.44     Snow
03:00 0.2 0.2 100 1.0 7 15 6.4 98.39     Snow
04:00 0.4 0.4 100 0.5 7 11 12.9 98.33     Rain
05:00 0.5 0.5 100 0.2 4 9 16.1 98.27     Rain
06:00 0.5 0.5 100 0.0 2 8 1.2 98.23     Rain, Fog
07:00 0.6 0.6 100 0.2 2 9 2.8 98.18     Rain, Fog
08:00 0.7 0.7 100 0.2 2 11 1.6 98.12     Rain, Fog
09:00 0.8 0.8 100 0.0 3 9 0.4 98.09     Rain, Fog
10:00 1.0 1.0 100 0.0 5 8 0.6 98.08     Fog
11:00 0.6 0.6 100 0.8 8 5 2.0 98.06     Fog
12:00 0.4 0.4 100 1.2   0 1.6 98.07     Snow
13:00 0.9 0.9 100 0.8   0 16.1 98.10     Rain
14:00 0.7 0.7 100 0.0 17 8 6.4 98.14     Fog
15:00 0.9 0.9 100 0.0 23 13 4.8 98.16     Rain, Fog
16:00 0.9 0.9 100 0.5 24 11 4.8 98.20     Snow
17:00 1.0 1.0 100 0.0 22 15 8.1 98.26     Rain, Fog
18:00 1.2 1.2 100 0.2 21 21 16.1 98.30     Rain
19:00 1.5 1.5 100 0.0 19 15 16.1 98.34     Rain
20:00 1.3 1.2 99 0.0 18 21 16.1 98.39     LegendNANA
21:00 1.0 0.9 99 0.0 16 17 16.1 98.43     LegendNANA
22:00 0.8 0.7 99 0.0 15 13 16.1 98.47     LegendNANA
23:00 0.8 0.8 100 0.0 16 17 16.1 98.48     LegendNANA

Notes on Data Quality.

Legend

  • E = Estimated
  • M = Missing
  • NA = Not Available*
  • [empty] = Indicates an unobserved value
Date modified: